sat.trackr.live / text

‹ back to catalog

STARLINK-33790

NORAD 64029 · 2025-102H

PAYLOAD ACTIVE UNKNOWN

§ Identity

Operator
Country
US
Launch date
2025-05-16
Launch site
AFWTR
Launch vehicle
Mass (kg)
RCS (m²)

Purposes: comms

External: N2YO · Heavens-Above · Gunter

§ Orbital elements

Epoch: 2026-05-25T02:03:02.613024Z

Period
96.11 min
Inclination
70.0008°
Eccentricity
0.0002836
Mean motion
14.98337311 rev/d
Perigee alt
570.1 km
Apogee alt
574.0 km
Semi-major
6,950.2 km
B*
2.8443e-4
RAAN
281.9018°
Arg perigee
262.0545°
Mean anomaly
98.0292°
Rev number
5,744

§ Raw data

STARLINK-337901 64029U 25102H   26145.08544691  .00003303  00000+0  28443-3 0  99982 64029  70.0008 281.9018 0002836 262.0545  98.0292 14.98337311 57440

JSON: /api/v1/satellites/64029 · /tle

For live sub-satellite position, see the globe view (requires WebGL).

§ Visibility from observer

Set your observer location to see the next 7 days of passes ≥ 10°. The values pass through the URL so the page stays shareable.

No JS? Fill the form by hand. The geolocation button needs JavaScript.